This demonstration page uses our WeatherBlox Daily Observations layout. Learn more.

Left ArrowRight Arrow

Hourly Observations for January 1, 2015

Temp ( °F °C ) Dew Point ( °F °C ) Humidity (%) Winds ( mph kmh ) Pressure ( in mb ) Visibility ( mi km ) Precip ( " mm )
12:52 am 00:52 Mostly Clear 13 -10.6 3 -16.1 64 64 SW 6 9 30.26 1025 10 16 0.00 0.00
1:52 am 01:52 Mostly Clear 12 -11.1 3 -16.1 67 67 SSW 9 15 30.24 1024 10 16 0.00 0.00
2:52 am 02:52 Partly Cloudy 12 -11.1 3 -16.1 67 67 SW 5 7 30.24 1024 10 16 0.00 0.00
3:52 am 03:52 Partly Cloudy 12 -11.1 4 -15.6 70 70 Calm 30.22 1023 10 16 0.00 0.00
4:52 am 04:52 Partly Cloudy 13 -10.6 5 -15 70 70 S 5 7 30.21 1023 10 16 0.00 0.00
5:52 am 05:52 Partly Cloudy 12 -11.1 5 -15 73 73 SSE 7 11 30.18 1022 10 16 0.00 0.00
6:52 am 06:52 Partly Cloudy 11 -11.7 5 -15 77 77 SSE 8 13 30.19 1022 10 16 0.00 0.00
7:52 am 07:52 Mostly Cloudy 12 -11.1 6 -14.4 77 77 ESE 7 11 30.19 1022 10 16 0.00 0.00
8:52 am 08:52 Mostly Cloudy 14 -10 8 -13.3 77 77 SSE 8 13 30.19 1022 10 16 0.00 0.00
9:52 am 09:52 Mostly Cloudy 18 -7.8 9 -12.8 68 68 SSE 8 13 30.20 1023 10 16 0.00 0.00
10:52 am 10:52 Mostly Cloudy 23 -5 11 -11.7 60 60 SSW 5 7 30.19 1022 10 16 0.00 0.00
11:52 am 11:52 Mostly Cloudy 27 -2.8 14 -10 58 58 ESE 7 11 30.15 1021 10 16 0.00 0.00
12:52 pm 12:52 Mostly Cloudy 31 -0.6 16 -8.9 54 54 S 8 13 30.12 1020 10 16 0.00 0.00
1:52 pm 13:52 Mostly Cloudy 34 1.1 18 -7.8 52 52 SSW 6 9 30.11 1020 10 16 0.00 0.00
2:52 pm 14:52 Partly Cloudy 35 1.7 18 -7.8 50 50 SSW 6 9 30.09 1019 10 16 0.00 0.00
3:52 pm 15:52 Partly Cloudy 36 2.2 19 -7.2 50 50 S 8 13 30.10 1019 10 16 0.00 0.00
4:52 pm 16:52 Mostly Sunny 34 1.1 20 -6.7 56 56 S 5 7 30.13 1020 10 16 0.00 0.00
5:52 pm 17:52 Partly Cloudy 19 -7 5 -15 53 53 WSW 13 20 30.39 1029 10 16 0.00 0.00
6:52 pm 18:52 Partly Cloudy 29 -1.7 19 -7.2 66 66 S 6 9 30.17 1022 10 16 0.00 0.00
7:52 pm 19:52 Partly Cloudy 27 -2.8 19 -7.2 72 72 N 5 7 30.19 1022 10 16 0.00 0.00
8:52 pm 20:52 Clear 28 -2.2 20 -6.7 72 72 NNW 3 6 30.21 1023 10 16 0.00 0.00
9:52 pm 21:52 Clear 21 -6.1 16 -8.9 81 81 Calm 30.20 1023 10 16 0.00 0.00
10:52 pm 22:52 Clear 20 -6.7 16 -8.9 85 85 Calm 30.21 1023 10 16 0.00 0.00
11:52 pm 23:52 Clear 18 -7.8 16 -8.9 92 92 NNW 5 7 30.21 1023 10 16 0.00 0.00

Powered by AerisWeather